Location: Poprad
(0.0000°N, 20.3000°E)
Time: 14:14:00
(UTC+01:00)

Daily predictions for brighter satellites

Satellite Brightness Start Highest point End
(mag) Time Altitude Azimuth Time Altitude Azimuth Time Altitude Azimuth
CSL-04 Rocket 3.7 17:52:47 10° SSE 17:57:57 57° ENE 18:03:08 10° N
Cosmos 2263 Rocket 3.8 17:53:02 10° NW 17:58:16 41° WSW 18:03:30 10° S
NOSS 3-2 (C) 3.9 17:56:00 10° SW 18:01:31 56° WNW 18:07:05 10° N
ISS -3.9 18:01:03 10° NNW 18:04:15 71° NE 18:07:29 10° SE
Cosmos 1400 Rocket 3.2 18:00:50 10° SSW 18:04:47 67° W 18:08:46 10° N
SJ 16-02 3.1 18:02:25 10° SE 18:04:56 15° ESE 18:07:25 10° ENE
Iridium 46 4.2 18:02:04 10° S 18:05:02 81° W 18:08:16 10° N
DELTA 2 R/B (1) 4.2 18:06:04 10° NNW 18:11:07 35° NE 18:16:09 10° ESE
CZ-2C R/B 4.3 18:08:02 10° N 18:12:41 62° WNW 18:17:16 10° SSW
H-2A R/B 2.7 18:10:44 10° SSE 18:14:32 76° E 18:18:23 10° N
YAOGAN 1 2.6 18:10:33 10° SSE 18:14:49 61° ENE 18:19:03 10° N
Cosmos 1315 Rocket 3.0 18:10:59 10° S 18:14:51 51° E 18:18:40 10° NNE
Cosmos 858 Rocket 4.5 18:11:11 10° S 18:16:20 69° ESE 18:21:28 10° NNE
CSL-04 Debris 4.2 18:11:13 10° SSE 18:16:41 90° W 18:22:05 10° NNW
Envisat 3.9 18:13:16 10° SE 18:17:23 25° ENE 18:21:30 10° NNE
Ariane H10-3 4.3 18:07:00 10° W 18:18:07 62° SSW 18:21:55 10° ESE
CZ-4 R/B 2.1 18:19:09 10° S 18:23:15 60° WSW 18:27:23 10° NNW
BLOCK DM-SL R/B 3.2 18:20:23 10° W 18:24:52 88° S 18:28:40 13° E
SL-19 R/B 3.8 18:21:54 10° NNE 18:25:01 75° ESE 18:28:36 10° S
Cosmos 1455 Rocket 3.1 18:22:52 10° N 18:27:06 54° E 18:31:23 10° SSE
Ariane H10+ 4.1 18:14:34 10° W 18:28:40 77° S 18:33:05 15° E
Cosmos 2237 Rocket 4.5 18:24:38 10° SW 18:28:56 23° WNW 18:33:15 10° NNW
Cosmos 1538 Rocket 4.3 18:24:54 10° N 18:29:55 43° ENE 18:34:53 10° SSE
ARIANE 5 DEB (SYLDA) 3.8 18:26:33 10° WNW 18:30:16 57° N 18:36:01 16° E
GPS 2-14 Rocket1 2.8 18:28:14 10° WSW 18:32:25 79° NNW 18:34:59 23° ENE
ATLAS 3B CENTAUR R/B 3.6 18:27:27 10° SW 18:33:29 60° SE 18:44:35 19° ENE
ASTEX 1 4.3 18:30:53 10° SE 18:34:56 26° E 18:37:05 19° NE
MONITOR-E 4.0 18:36:05 10° SSE 18:38:58 57° E 18:41:16 14° N
ARIANE 5 R/B 1.8 18:43:53 10° WSW 18:45:22 19° S 18:45:44 18° SSE
Cosmos 1802 Rocket 4.0 18:39:52 10° S 18:46:00 60° E 18:51:55 11° NNE
ARIANE 5 DEB (SYLDA) 2.8 18:44:17 10° WSW 18:48:17 47° S 18:49:04 34° SE
GPS 2-04 Rocket1 3.8 18:44:48 10° NNW 18:48:08 27° NNE 18:48:08 27° NNE
Cosmos 2100 Rocket 4.0 18:43:24 10° S 18:49:35 88° W 18:55:48 10° N
CENTAUR R/B 3.2 18:44:36 10° SW 18:49:39 43° WNW 18:55:01 10° N
Cosmos 1459 Rocket 4.0 18:44:23 10° S 18:50:47 87° E 18:57:07 10° N
Cosmos 1378 4.4 18:47:54 10° SSE 18:50:17 25° ESE 18:50:17 25° ESE
Ariane H10+ 3.5 18:22:18 10° W 18:52:59 74° NNW 18:55:43 31° ENE
Meteor 1-15 Rocket 4.4 18:48:39 10° N 18:54:33 84° W 19:00:28 10° S
Ariane Rocket 3.8 18:49:46 10° S 18:54:42 52° WSW 18:59:35 10° NNW
Cosmos 1844 3.6 18:49:53 10° N 18:55:37 75° ENE 19:01:24 10° SSE
SL-16 R/B 3.4 18:50:42 10° SW 18:55:59 41° WNW 19:01:16 10° N
Milstar 3 4.5 18:51:17 10° SSW 18:56:10 20° SSE 19:00:24 13° ESE
Intelsat 5-1 Rocket 3.9 18:52:28 10° NW 18:56:20 17° N 18:56:23 17° N
Okean 1-7 Rocket 3.6 18:54:44 10° S 18:59:09 57° E 19:00:26 40° NE
ARIANE 5 R/B 3.8 18:56:34 10° WNW 19:00:20 59° N 19:02:59 32° ENE
Cosmos 372 Rocket 4.1 19:01:13 10° S 19:06:14 49° ESE 19:07:00 46° ENE
Cosmos 1125 Rocket 4.2 19:01:40 10° SSE 19:06:14 34° ESE 19:06:14 34° ESE
Ariane H10 3.3 19:03:13 10° WSW 19:06:50 61° S 19:14:30 21° E
Cosmos 1943 4.1 19:04:04 10° SSE 19:08:25 29° ESE 19:08:25 29° ESE
Cosmos 2061 Rocket 4.0 19:02:46 10° S 19:09:00 84° W 19:14:37 13° N
MOS 1 4.3 19:07:18 10° SSE 19:13:00 86° WSW 19:18:42 10° NNW
Atlas Centaur 2 2.7 19:07:07 10° SW 19:14:57 71° SSE 19:17:05 45° E
Cosmos 2016 Rocket 4.0 19:09:31 10° S 19:15:54 84° W 19:20:32 20° N
CZ-2D R/B 3.4 19:14:44 10° S 19:18:04 66° S 19:18:04 66° S
Palapa B4 Rocket 2.9 19:15:22 10° WNW 19:18:32 63° WNW 19:18:32 63° WNW
Cosmos 1461 3.6 19:15:03 10° S 19:18:53 45° SE 19:18:53 45° SE
Cosmos 1864 Rocket 4.4 19:16:57 10° S 19:23:16 81° E 19:25:43 40° NNE
YAOGAN 6 3.2 19:19:36 10° S 19:22:44 56° SSW 19:22:44 56° SSW
SL-24 R/B - RUBIN 2 3.8 19:22:46 10° SSW 19:27:42 74° SSE 19:27:42 74° SSE
Ariane H10-3 4.2 19:31:56 10° WNW 19:32:02 11° WNW 19:32:02 11° WNW
Cosmos 1892 Rocket 4.0 19:30:35 10° SSW 19:34:33 60° WSW 19:34:33 60° WSW
EPKM 3.9 19:31:12 10° WNW 19:40:47 49° SW 19:40:57 48° SSW
SJ 16-02 3.5 19:39:51 10° SW 19:43:13 21° W 19:44:47 18° NW
SPOT 3 Rocket 4.1 19:38:49 10° S 19:43:56 57° WSW 19:45:47 37° NW
Thor Agena Rocket 4.3 19:47:51 46° S 19:47:51 46° S 19:51:32 10° S
ATLAS CENTAUR R/B 4.0 19:53:18 61° ENE 19:53:18 61° ENE 20:10:44 10° SE
Cosmos 2233 Rocket 4.2 19:53:26 10° S 19:58:58 68° SSW 19:58:58 68° SSW
Ariane 42P Rocket 3.8 19:59:19 10° WSW 20:34:03 - E 20:02:29 61° SSW
Cosmos 2278 Rocket 4.4 20:16:10 17° S 20:16:10 17° S 20:17:24 10° S
Ariane H10 4.4 19:53:29 10° W 20:42:05 82° SSW 20:42:05 82° SSW
